Hourly Data Report for October 22, 2015

All times are specified in Local Standard Time (LST). Add 1 hour to adjust for Daylight Saving Time where and when it is observed.

CAPE DORSET A
NUNAVUT

64°13'49.000" N
76°31'30.000" W
48.20 m
2400637
71366
YTE

Download Data

Hourly Data (October 2015)
Hourly Data Report for October 22, 2015
Temp Definition
°C
Dew Point Temp Definition
°C
Rel Hum Definition
%
Wind Dir Definition
10's deg

Wind Spd Definition
km/h
Visibility Definition
km
Stn Press Definition
kPa
Hmdx Definition


Wind Chill Definition


Weather Definition


TIME
00:00 Legend Double Dagger -5.8 -7.5 88 27 17 12.9 101.14   -12 Snow
01:00 Legend Double Dagger -5.7 -7.5 87 29 21 16.1 101.15   -13 Snow
02:00 Legend Double Dagger -6.1 -8.3 84 31 26 16.1 101.19   -14 Snow
03:00 Legend Double Dagger -6.3 -9.2 80 29 22 16.1 101.22   -14 Snow
04:00 Legend Double Dagger -6.9 -9.4 83 27 17 16.1 101.25   -13 Snow
05:00 Legend Double Dagger -7.1 -9.2 85 28 15 16.1 101.28   -13 LegendNANA
06:00 Legend Double Dagger -6.5 -8.9 83 30 15 16.1 101.32   -12 LegendNANA
07:00 Legend Double Dagger -6.1 -8.5 83 30 13 16.1 101.35   -11 LegendNANA
08:00 Legend Double Dagger -6.0 -9.4 77 31 15 16.1 101.40   -12 Snow
09:00 Legend Double Dagger -5.9 -9.3 77 33 15 16.1 101.42   -12 LegendNANA
10:00 Legend Double Dagger -6.1 -9.5 77 30 13 16.1 101.42   -11 LegendNANA
11:00 Legend Double Dagger -6.1 -9.9 74 30 17 16.1 101.43   -12 LegendNANA
12:00 Legend Double Dagger -6.0 -9.6 76 30 13 16.1 101.46   -11 LegendNANA
13:00 Legend Double Dagger -6.0 -9.8 75 28 18 16.1 101.46   -12 LegendNANA
14:00 Legend Double Dagger -6.0 -9.4 77 27 21 16.1 101.48   -13 LegendNANA
15:00 Legend Double Dagger -5.6 -9.2 76 28 24 16.1 101.47   -13 LegendNANA
16:00 Legend Double Dagger -6.1 -9.2 79 28 22 16.1 101.49   -13 LegendNANA
17:00 Legend Double Dagger -6.5 -9.5 79 28 17 16.1 101.50   -13 LegendNANA
18:00 Legend Double Dagger -6.8 -9.6 81 28 11 16.1 101.52   -12 Snow
19:00 Legend Double Dagger -6.6 -9.2 82 29 18 16.1 101.50   -13 LegendNANA
20:00 Legend Double Dagger -6.3 -8.9 82 29 22 16.1 101.48   -14 LegendNANA
21:00 Legend Double Dagger -6.0 -8.4 83 29 17 16.1 101.46   -12 LegendNANA
22:00 Legend Double Dagger -5.8 -8.4 82 26 18 16.1 101.47   -12 LegendNANA
23:00 Legend Double Dagger -5.6 -8.0 83 26 21 16.1 101.43   -12 LegendNANA

Notes on Data Quality.

Legend

  • E = Estimated
  • M = Missing
  • NA = Not Available
  • ‡ = Partner data that is not subject to review by the National Climate Archives
Date modified: